Time,TemperatureF,DewpointF,PressureIn,WindDirection,WindDirectionDegrees,WindSpeedMPH,WindSpeedGustMPH,Humidity,HourlyPrecipIn,Conditions,Clouds,dailyrainin,SolarRadiationWatts/m^2,SoftwareType,DateUTC
2013-07-09 00:02:00,67.0,57.0,30.09,NNW,332,0.0,0.0,71,0.00,,,0.00,0.000000,,2013-07-09 07:02:00,
2013-07-09 00:11:00,67.0,57.0,30.09,NNW,332,1.0,3.0,71,0.00,,,0.00,0.000000,,2013-07-09 07:11:00,
2013-07-09 00:33:00,67.0,58.0,30.09,ESE,118,0.0,3.0,72,0.00,,,0.00,0.000000,,2013-07-09 07:33:00,
2013-07-09 00:42:00,66.0,57.0,30.09,ESE,118,0.0,2.0,72,0.00,,,0.00,0.000000,,2013-07-09 07:42:00,
2013-07-09 00:53:00,66.0,57.0,30.09,ESE,118,1.0,3.0,72,0.00,,,0.00,0.000000,,2013-07-09 07:53:00,
2013-07-09 01:01:00,66.0,57.0,30.09,ESE,109,1.0,5.0,73,0.00,,,0.00,0.000000,,2013-07-09 08:01:00,
2013-07-09 01:11:00,66.0,57.0,30.09,ESE,115,2.0,5.0,74,0.00,,,0.00,0.000000,,2013-07-09 08:11:00,
2013-07-09 01:22:00,66.0,57.0,30.08,ESE,115,0.0,3.0,74,0.00,,,0.00,0.000000,,2013-07-09 08:22:00,
2013-07-09 01:33:00,66.0,58.0,30.09,ESE,119,3.0,5.0,76,0.00,,,0.00,0.000000,,2013-07-09 08:33:00,
2013-07-09 01:43:00,66.0,59.0,30.08,ESE,121,3.0,5.0,77,0.00,,,0.00,0.000000,,2013-07-09 08:43:00,
2013-07-09 01:52:00,65.0,58.0,30.08,ESE,113,4.0,7.0,79,0.00,,,0.00,0.000000,,2013-07-09 08:52:00,
2013-07-09 02:02:00,65.0,58.0,30.08,ESE,111,0.0,5.0,79,0.00,,,0.00,0.000000,,2013-07-09 09:02:00,
2013-07-09 02:11:00,65.0,58.0,30.08,ESE,111,0.0,3.0,79,0.00,,,0.00,0.000000,,2013-07-09 09:11:00,
2013-07-09 02:22:00,65.0,59.0,30.08,ESE,111,2.0,5.0,80,0.00,,,0.00,0.000000,,2013-07-09 09:22:00,
2013-07-09 02:34:00,65.0,59.0,30.09,ESE,113,2.0,5.0,81,0.00,,,0.00,0.000000,,2013-07-09 09:34:00,
2013-07-09 02:42:00,64.0,58.0,30.08,ESE,115,3.0,5.0,81,0.00,,,0.00,0.000000,,2013-07-09 09:42:00,
2013-07-09 02:52:00,64.0,58.0,30.08,East,97,4.0,5.0,81,0.00,,,0.00,0.000000,,2013-07-09 09:52:00,
2013-07-09 03:01:00,64.0,58.0,30.08,ESE,122,3.0,5.0,81,0.00,,,0.00,0.000000,,2013-07-09 10:01:00,
2013-07-09 03:22:00,63.0,58.0,30.08,ESE,119,2.0,5.0,83,0.00,,,0.00,0.000000,,2013-07-09 10:22:00,
2013-07-09 03:33:00,63.0,58.0,30.08,ESE,118,1.0,5.0,84,0.00,,,0.00,0.000000,,2013-07-09 10:33:00,
2013-07-09 03:42:00,62.0,57.0,30.08,ESE,107,1.0,3.0,85,0.00,,,0.00,0.000000,,2013-07-09 10:42:00,
2013-07-09 03:52:00,62.0,58.0,30.08,ESE,115,0.0,4.0,86,0.00,,,0.00,0.000000,,2013-07-09 10:52:00,
2013-07-09 04:01:00,62.0,58.0,30.08,East,90,2.0,3.0,86,0.00,,,0.00,0.000000,,2013-07-09 11:01:00,
2013-07-09 04:11:00,62.0,57.0,30.08,East,90,0.0,2.0,85,0.00,,,0.00,0.000000,,2013-07-09 11:11:00,
2013-07-09 04:22:00,61.0,57.0,30.08,East,90,0.0,2.0,86,0.00,,,0.00,0.000000,,2013-07-09 11:22:00,
2013-07-09 04:33:00,61.0,57.0,30.08,ESE,111,3.0,5.0,87,0.00,,,0.00,0.000000,,2013-07-09 11:33:00,
2013-07-09 04:42:00,61.0,57.0,30.08,East,93,1.0,6.0,88,0.00,,,0.00,0.000000,,2013-07-09 11:42:00,
2013-07-09 04:53:00,61.0,57.0,30.08,SE,124,1.0,5.0,88,0.00,,,0.00,0.000000,,2013-07-09 11:53:00,
2013-07-09 05:01:00,61.0,58.0,30.08,ESE,119,2.0,5.0,89,0.00,,,0.00,0.000000,,2013-07-09 12:01:00,
2013-07-09 05:11:00,61.0,58.0,30.08,ESE,119,2.0,4.0,89,0.00,,,0.00,0.000000,,2013-07-09 12:11:00,
2013-07-09 05:22:00,61.0,58.0,30.08,ESE,119,0.0,2.0,89,0.00,,,0.00,0.000000,,2013-07-09 12:22:00,
2013-07-09 05:33:00,61.0,57.0,30.09,ESE,119,0.0,1.0,88,0.00,,,0.00,0.000000,,2013-07-09 12:33:00,
2013-07-09 05:43:00,61.0,57.0,30.09,ESE,119,0.0,1.0,88,0.00,,,0.00,5.000000,,2013-07-09 12:43:00,
2013-07-09 05:52:00,60.0,57.0,30.09,ESE,119,0.0,2.0,89,0.00,,,0.00,11.000000,,2013-07-09 12:52:00,
2013-07-09 06:53:00,61.0,58.0,30.09,ESE,107,3.0,4.0,91,0.00,,,0.00,132.000000,,2013-07-09 13:53:00,
2013-07-09 07:01:00,62.0,59.0,30.09,ESE,107,1.0,4.0,90,0.00,,,0.00,146.000000,,2013-07-09 14:01:00,
2013-07-09 07:34:00,64.0,58.0,30.10,NNW,330,1.0,4.0,80,0.00,,,0.00,241.000000,,2013-07-09 14:34:00,
2013-07-09 07:43:00,64.0,58.0,30.11,NW,325,2.0,5.0,80,0.00,,,0.00,265.000000,,2013-07-09 14:43:00,
2013-07-09 07:53:00,65.0,59.0,30.11,NW,325,1.0,4.0,80,0.00,,,0.00,281.000000,,2013-07-09 14:53:00,
2013-07-09 08:01:00,66.0,58.0,30.10,NW,325,0.0,2.0,76,0.00,,,0.00,325.000000,,2013-07-09 15:01:00,
2013-07-09 08:11:00,66.0,57.0,30.10,NW,325,1.0,3.0,74,0.00,,,0.00,339.000000,,2013-07-09 15:11:00,
2013-07-09 08:33:00,67.0,57.0,30.11,NW,325,2.0,4.0,71,0.00,,,0.00,399.000000,,2013-07-09 15:33:00,
2013-07-09 08:43:00,68.0,58.0,30.11,NW,325,2.0,3.0,71,0.00,,,0.00,439.000000,,2013-07-09 15:43:00,
2013-07-09 08:52:00,68.0,58.0,30.11,NW,324,1.0,3.0,70,0.00,,,0.00,457.000000,,2013-07-09 15:52:00,
2013-07-09 09:11:00,69.0,57.0,30.11,NW,309,1.0,3.0,66,0.00,,,0.00,510.000000,,2013-07-09 16:11:00,
2013-07-09 09:22:00,70.0,58.0,30.11,NNW,333,1.0,5.0,65,0.00,,,0.00,552.000000,,2013-07-09 16:22:00,
2013-07-09 09:33:00,70.0,57.0,30.11,NW,315,2.0,6.0,64,0.00,,,0.00,563.000000,,2013-07-09 16:33:00,
2013-07-09 09:52:00,71.0,57.0,30.11,NW,307,0.0,7.0,62,0.00,,,0.00,617.000000,,2013-07-09 16:52:00,
2013-07-09 10:02:00,72.0,58.0,30.11,WNW,302,1.0,6.0,61,0.00,,,0.00,654.000000,,2013-07-09 17:02:00,
2013-07-09 10:11:00,72.0,58.0,30.11,SSW,209,3.0,6.0,61,0.00,,,0.00,666.000000,,2013-07-09 17:11:00,
2013-07-09 10:45:00,74.0,59.0,30.10,NW,320,3.0,6.0,59,0.00,,,0.00,742.000000,,2013-07-09 17:45:00,
2013-07-09 10:53:00,74.0,59.0,30.10,NW,306,1.0,5.0,59,0.00,,,0.00,761.000000,,2013-07-09 17:53:00,
2013-07-09 11:01:00,75.0,59.0,30.10,WNW,296,0.0,7.0,58,0.00,,,0.00,782.000000,,2013-07-09 18:01:00,
2013-07-09 11:42:00,77.0,60.0,30.09,WNW,296,2.0,8.0,55,0.00,,,0.00,842.000000,,2013-07-09 18:42:00,
2013-07-09 11:52:00,78.0,59.0,30.09,NW,311,4.0,7.0,53,0.00,,,0.00,856.000000,,2013-07-09 18:52:00,
2013-07-09 12:01:00,78.0,59.0,30.09,NW,314,1.0,7.0,53,0.00,,,0.00,867.000000,,2013-07-09 19:01:00,
2013-07-09 12:11:00,77.0,59.0,30.09,NW,310,4.0,8.0,53,0.00,,,0.00,874.000000,,2013-07-09 19:11:00,
2013-07-09 12:42:00,79.0,60.0,30.09,WSW,248,2.0,7.0,52,0.00,,,0.00,902.000000,,2013-07-09 19:42:00,
2013-07-09 12:52:00,79.0,60.0,30.08,NW,313,2.0,7.0,52,0.00,,,0.00,904.000000,,2013-07-09 19:52:00,
2013-07-09 13:01:00,79.0,60.0,30.08,NNW,334,5.0,8.0,52,0.00,,,0.00,905.000000,,2013-07-09 20:01:00,
2013-07-09 13:11:00,79.0,60.0,30.08,WNW,303,4.0,7.0,52,0.00,,,0.00,907.000000,,2013-07-09 20:11:00,
2013-07-09 13:32:00,81.0,61.0,30.07,NW,315,5.0,9.0,50,0.00,,,0.00,909.000000,,2013-07-09 20:32:00,
2013-07-09 13:42:00,81.0,60.0,30.07,WNW,296,3.0,10.0,49,0.00,,,0.00,907.000000,,2013-07-09 20:42:00,
2013-07-09 13:52:00,81.0,60.0,30.07,WSW,250,4.0,9.0,49,0.00,,,0.00,905.000000,,2013-07-09 20:52:00,
2013-07-09 14:01:00,81.0,60.0,30.07,North,360,4.0,11.0,49,0.00,,,0.00,895.000000,,2013-07-09 21:01:00,
2013-07-09 14:11:00,82.0,60.0,30.06,WNW,291,3.0,7.0,48,0.00,,,0.00,891.000000,,2013-07-09 21:11:00,
2013-07-09 14:22:00,82.0,60.0,30.06,NW,319,3.0,7.0,47,0.00,,,0.00,891.000000,,2013-07-09 21:22:00,
2013-07-09 14:32:00,83.0,60.0,30.06,WNW,302,4.0,10.0,46,0.00,,,0.00,881.000000,,2013-07-09 21:32:00,
2013-07-09 14:42:00,83.0,59.0,30.05,NNW,340,2.0,11.0,45,0.00,,,0.00,870.000000,,2013-07-09 21:42:00,
2013-07-09 14:52:00,83.0,59.0,30.05,NW,322,4.0,12.0,45,0.00,,,0.00,861.000000,,2013-07-09 21:52:00,
2013-07-09 15:01:00,83.0,59.0,30.05,WSW,248,5.0,11.0,45,0.00,,,0.00,849.000000,,2013-07-09 22:01:00,
2013-07-09 15:11:00,83.0,59.0,30.05,NW,305,3.0,15.0,45,0.00,,,0.00,840.000000,,2013-07-09 22:11:00,
2013-07-09 15:33:00,84.0,58.0,30.05,WNW,286,6.0,11.0,42,0.00,,,0.00,803.000000,,2013-07-09 22:33:00,
2013-07-09 15:42:00,84.0,57.0,30.05,NNW,344,4.0,9.0,40,0.00,,,0.00,791.000000,,2013-07-09 22:42:00,
2013-07-09 15:53:00,84.0,57.0,30.05,North,360,3.0,7.0,40,0.00,,,0.00,772.000000,,2013-07-09 22:53:00,
2013-07-09 16:01:00,84.0,58.0,30.05,NW,314,6.0,10.0,41,0.00,,,0.00,751.000000,,2013-07-09 23:01:00,
2013-07-09 16:11:00,84.0,58.0,30.04,North,360,1.0,10.0,41,0.00,,,0.00,740.000000,,2013-07-09 23:11:00,
2013-07-09 16:33:00,85.0,59.0,30.04,WNW,288,8.0,12.0,41,0.00,,,0.00,701.000000,,2013-07-09 23:33:00,
2013-07-09 16:52:00,85.0,58.0,30.03,WNW,286,2.0,8.0,40,0.00,,,0.00,645.000000,,2013-07-09 23:52:00,
2013-07-09 17:01:00,85.0,59.0,30.03,North,360,2.0,10.0,41,0.00,,,0.00,619.000000,,2013-07-10 00:01:00,
2013-07-09 17:11:00,85.0,59.0,30.03,WNW,300,4.0,8.0,42,0.00,,,0.00,605.000000,,2013-07-10 00:11:00,
2013-07-09 17:33:00,84.0,60.0,30.03,NNW,339,5.0,10.0,44,0.00,,,0.00,554.000000,,2013-07-10 00:33:00,
2013-07-09 17:52:00,84.0,60.0,30.02,NW,315,5.0,12.0,44,0.00,,,0.00,499.000000,,2013-07-10 00:52:00,
2013-07-09 18:11:00,84.0,60.0,30.01,NNW,345,2.0,11.0,45,0.00,,,0.00,431.000000,,2013-07-10 01:11:00,
2013-07-09 18:32:00,83.0,59.0,30.01,NW,317,4.0,9.0,44,0.00,,,0.00,374.000000,,2013-07-10 01:32:00,
2013-07-09 18:43:00,83.0,59.0,30.01,NE,34,3.0,6.0,44,0.00,,,0.00,346.000000,,2013-07-10 01:43:00,
2013-07-09 18:52:00,83.0,59.0,30.01,NW,311,2.0,9.0,44,0.00,,,0.00,336.000000,,2013-07-10 01:52:00,
2013-07-09 19:01:00,83.0,59.0,30.01,NNW,336,6.0,9.0,44,0.00,,,0.00,290.000000,,2013-07-10 02:01:00,
2013-07-09 19:11:00,82.0,59.0,30.01,NW,311,3.0,9.0,45,0.00,,,0.00,264.000000,,2013-07-10 02:11:00,
2013-07-09 19:33:00,81.0,58.0,30.01,NNW,334,4.0,10.0,46,0.00,,,0.00,197.000000,,2013-07-10 02:33:00,
2013-07-09 19:42:00,80.0,57.0,30.00,WNW,283,3.0,10.0,46,0.00,,,0.00,167.000000,,2013-07-10 02:42:00,
2013-07-09 19:53:00,80.0,57.0,30.01,NW,304,4.0,7.0,46,0.00,,,0.00,149.000000,,2013-07-10 02:53:00,
2013-07-09 20:01:00,80.0,59.0,30.00,North,360,2.0,7.0,48,0.00,,,0.00,104.000000,,2013-07-10 03:01:00,
2013-07-09 20:11:00,80.0,56.0,30.00,NNE,33,3.0,7.0,44,0.00,,,0.00,76.000000,,2013-07-10 03:11:00,
2013-07-09 20:22:00,79.0,56.0,30.00,North,11,3.0,6.0,45,0.00,,,0.00,54.000000,,2013-07-10 03:22:00,
2013-07-09 20:32:00,78.0,56.0,30.01,NE,34,1.0,5.0,46,0.00,,,0.00,35.000000,,2013-07-10 03:32:00,
2013-07-09 20:43:00,77.0,54.0,30.00,NE,38,2.0,6.0,45,0.00,,,0.00,21.000000,,2013-07-10 03:43:00,
2013-07-09 20:52:00,76.0,54.0,30.00,North,5,0.0,4.0,46,0.00,,,0.00,14.000000,,2013-07-10 03:52:00,
2013-07-09 21:01:00,75.0,53.0,30.01,East,93,1.0,3.0,47,0.00,,,0.00,11.000000,,2013-07-10 04:01:00,
2013-07-09 21:11:00,75.0,54.0,30.01,East,91,1.0,5.0,48,0.00,,,0.00,7.000000,,2013-07-10 04:11:00,
2013-07-09 21:22:00,75.0,54.0,30.01,East,91,1.0,5.0,48,0.00,,,0.00,7.000000,,2013-07-10 04:22:00,
2013-07-09 21:32:00,72.0,53.0,30.01,ESE,102,3.0,7.0,51,0.00,,,0.00,0.000000,,2013-07-10 04:32:00,
2013-07-09 21:42:00,71.0,52.0,30.01,ESE,117,2.0,7.0,52,0.00,,,0.00,0.000000,,2013-07-10 04:42:00,
2013-07-09 21:52:00,70.0,52.0,30.01,SE,142,1.0,9.0,53,0.00,,,0.00,0.000000,,2013-07-10 04:52:00,
2013-07-09 22:02:00,70.0,53.0,30.02,ENE,65,2.0,6.0,54,0.00,,,0.00,0.000000,,2013-07-10 05:02:00,
2013-07-09 22:11:00,69.0,52.0,30.02,East,101,1.0,6.0,54,0.00,,,0.00,0.000000,,2013-07-10 05:11:00,
2013-07-09 22:32:00,68.0,52.0,30.02,East,79,1.0,3.0,56,0.00,,,0.00,0.000000,,2013-07-10 05:32:00,
2013-07-09 22:42:00,68.0,52.0,30.02,ESE,123,3.0,4.0,57,0.00,,,0.00,0.000000,,2013-07-10 05:42:00,
2013-07-09 22:52:00,68.0,53.0,30.02,ESE,118,4.0,6.0,59,0.00,,,0.00,0.000000,,2013-07-10 05:52:00,
2013-07-09 23:01:00,68.0,53.0,30.02,NE,53,1.0,6.0,58,0.00,,,0.00,0.000000,,2013-07-10 06:01:00,
2013-07-09 23:11:00,68.0,53.0,30.02,ENE,78,0.0,5.0,59,0.00,,,0.00,0.000000,,2013-07-10 06:11:00,
2013-07-09 23:21:00,68.0,54.0,30.02,East,81,2.0,5.0,61,0.00,,,0.00,0.000000,,2013-07-10 06:21:00,
2013-07-09 23:32:00,68.0,56.0,30.02,East,81,1.0,5.0,65,0.00,,,0.00,0.000000,,2013-07-10 06:32:00,
2013-07-09 23:42:00,67.0,55.0,30.02,ENE,71,1.0,4.0,66,0.00,,,0.00,0.000000,,2013-07-10 06:42:00,
2013-07-09 23:52:00,67.0,56.0,30.02,ESE,115,1.0,4.0,67,0.00,,,0.00,0.000000,,2013-07-10 06:52:00,